Flag for United Kingdom Weather past 2 weeks in Milton Keynes, England, United Kingdom

Now
43 °F

Sunny.


Feels Like: 35 °F
Forecast: N/A
Wind: 17 mph from West

Location: Cranfield

Current Time: Mar 2, 2015 at 8:10:00 PM

Latest Report: Mar 2, 2015 at 5:20 PM


Visibility: 10 mi

Pressure: 29.83 "Hg

Humidity: 49%

Dew point: 25 °F

Location of Milton KeynesLocation

Historic Weather in Milton Keynes — Graph

°F

Milton Keynes temperature yesterday

Maximum temperature yesterday: 50 °F (at 1:20 PM)
Minimum temperature yesterday: 43 °F (at 4:50 PM)
Average temperature yesterday: 47 °F

Past Weeks' High & Low Weather Summary

 TemperatureHumidityPressure
High52 °F (Feb 25, 1:20 PM)100% (Feb 16, 8:50 AM)30.69 "Hg (Feb 16, 8:50 AM)
Low34 °F (Feb 17, 7:20 AM)40% (Mar 2, 3:20 PM)29.18 "Hg (Feb 23, 12:50 PM)
Average44 °F78%29.85 "Hg
* Reported Feb 15 5:20 PM — Mar 2 5:20 PM, Milton Keynes, Weather by CustomWeather, © 2015

Note: Actual official high and low records may vary slightly from our data, if they occured in-between our weather recording intervals... More about our weather records

Advertising

Milton Keynes weather history for previous 24 hours

 ConditionsComfort  
Time TempWeatherWind HumidityBarometerVisibility
5:20 PM
Mon, Mar 2
43 °FSunny.17 mph49%29.83 "Hg10 mi
4:50 PM45 °FSunny.16 mph46%29.83 "Hg10 mi
4:20 PM45 °FSunny.17 mph42%29.83 "Hg10 mi
3:50 PM46 °FPassing clouds.18 mph43%29.80 "HgN/A
3:20 PM46 °FPassing clouds.23 mph40%29.80 "HgN/A
2:50 PM45 °FPassing clouds.23 mph46%29.77 "HgN/A
2:20 PM45 °FPassing clouds.22 mph49%29.77 "HgN/A
1:50 PM45 °FPassing clouds.23 mph49%29.74 "HgN/A
1:20 PM45 °FPassing clouds.24 mph53%29.74 "HgN/A
12:50 PM43 °FScattered clouds.22 mph57%29.71 "HgN/A
12:20 PM45 °FScattered clouds.24 mph53%29.71 "HgN/A
11:50 AM45 °FScattered clouds.24 mph53%29.68 "HgN/A
11:20 AM43 °FScattered clouds.22 mph61%29.68 "HgN/A
10:50 AM43 °FScattered clouds.25 mph61%29.65 "HgN/A
10:20 AM41 °FScattered clouds.21 mph70%29.65 "HgN/A
9:50 AM39 °FPassing clouds.18 mph81%29.62 "HgN/A
9:20 AM37 °FPassing clouds.17 mph87%29.62 "HgN/A
8:50 AM36 °FPassing clouds.17 mph93%29.62 "HgN/A
8:20 AM37 °FSprinkles. Partly sunny.20 mph87%29.62 "HgN/A
7:50 AM37 °FPassing clouds.18 mph93%29.59 "HgN/A
Weather by CustomWeather, © 2015

See weather overviewHow to use our weather pages